User: anonymous   Login
Location: Melbourne
(37.8170°S, 144.9670°E)
Time: 10:33:50
(UTC+11:00)
Language:

Cosmos 962 Rocket - Orbit

View from above orbital plane
View from above orbital plane
View from above satellite
View from above satellite

Ground track
Ground track

The orbit data is extracted from the following two-line orbital elements,

1 10461U 77107B   17292.55867170 +.00000003 +00000-0 -12422-4 0  9993
2 10461 082.9451 281.0662 0033869 158.0441 341.6424 13.76783343007613
Epoch (UTC): 19 October 2017 13:24:29
Eccentricity: 0.0033869
inclination: 82.9451°
perigee height: 950 km
apogee height: 1000 km
right ascension of ascending node: 281.0662°
argument of perigee: 158.0441°
revolutions per day: 13.76783343
mean anomaly at epoch: 341.6424°
orbit number at epoch: 761

The dashed part of the orbit path shows where the satellite is in the earth's shadow,  

DLR